Wetterdaten: Woche 25.01.16 - 31.01.16 (KW4)
Datum Zeit Temp. I. Temp. A. Feuchte I. Feuchte A. Luftdruck Regen Wind Richtung Sonnenschein UV Solar Taupunkt Windchill Windben
25.01.2016 00:00 22,4 C 1,5 C 47 % 96 % 1031,4 hPa 0,4 l/m 1,5 km/h (1 Bft) S 0,00 h 0,0 UV-I 0 W/m 1,0 C 1,5 C 4,3 km/h (1 Bft)
25.01.2016 01:00 22,3 C 1,6 C 48 % 97 % 1030,8 hPa 0,4 l/m 1,8 km/h (1 Bft) S 0,00 h 0,0 UV-I 0 W/m 1,2 C 1,6 C 5,5 km/h (1 Bft)
25.01.2016 02:00 22,2 C 1,8 C 48 % 97 % 1030,6 hPa 0,2 l/m 1,8 km/h (1 Bft) S 0,00 h 0,0 UV-I 0 W/m 1,4 C 1,8 C 4,4 km/h (1 Bft)
25.01.2016 03:00 22,2 C 1,8 C 49 % 97 % 1030,4 hPa 0,0 l/m 0,8 km/h (0 Bft) S 0,00 h 0,0 UV-I 0 W/m 1,4 C 1,8 C 2,6 km/h (1 Bft)
25.01.2016 04:00 22,3 C 1,9 C 49 % 97 % 1030,2 hPa 0,0 l/m 0,1 km/h (0 Bft) SW 0,00 h 0,0 UV-I 0 W/m 1,5 C 1,9 C 0,6 km/h (0 Bft)
25.01.2016 05:00 22,2 C 2,1 C 48 % 98 % 1030,3 hPa 0,0 l/m 1,0 km/h (0 Bft) S 0,00 h 0,0 UV-I 0 W/m 1,9 C 2,1 C 2,5 km/h (1 Bft)
25.01.2016 06:00 22,3 C 2,2 C 49 % 98 % 1030,3 hPa 0,0 l/m 0,2 km/h (0 Bft) SW 0,00 h 0,0 UV-I 0 W/m 2,0 C 2,2 C 0,9 km/h (0 Bft)
25.01.2016 07:00 22,3 C 2,4 C 49 % 98 % 1030,3 hPa 0,2 l/m 0,0 km/h (0 Bft) S-SW 0,00 h 0,0 UV-I 0 W/m 2,1 C 2,4 C 0,1 km/h (0 Bft)
25.01.2016 08:00 22,7 C 2,6 C 50 % 98 % 1030,4 hPa 0,0 l/m 0,6 km/h (0 Bft) S 0,00 h 0,0 UV-I 7 W/m 2,3 C 2,6 C 1,2 km/h (1 Bft)
25.01.2016 09:00 22,9 C 2,7 C 50 % 98 % 1030,4 hPa 0,0 l/m 0,5 km/h (0 Bft) S 0,00 h 0,0 UV-I 29 W/m 2,5 C 2,7 C 1,8 km/h (1 Bft)
25.01.2016 10:00 22,6 C 3,1 C 47 % 98 % 1030,5 hPa 0,0 l/m 1,0 km/h (0 Bft) S 0,00 h 0,0 UV-I 53 W/m 2,8 C 3,1 C 2,4 km/h (1 Bft)
25.01.2016 11:00 22,3 C 3,3 C 45 % 98 % 1030,7 hPa 0,0 l/m 1,2 km/h (1 Bft) S 0,00 h 0,5 UV-I 58 W/m 3,0 C 3,3 C 2,3 km/h (1 Bft)
25.01.2016 12:00 22,6 C 3,5 C 45 % 98 % 1030,4 hPa 0,0 l/m 0,7 km/h (0 Bft) S-SW 0,00 h 0,5 UV-I 59 W/m 3,3 C 3,5 C 1,7 km/h (1 Bft)
25.01.2016 13:00 22,7 C 3,9 C 45 % 98 % 1030,1 hPa 0,0 l/m 1,5 km/h (1 Bft) S-SW 0,00 h 0,0 UV-I 50 W/m 3,7 C 3,9 C 3,7 km/h (1 Bft)
25.01.2016 14:00 22,7 C 4,0 C 44 % 98 % 1029,8 hPa 0,0 l/m 1,3 km/h (1 Bft) SW 0,00 h 0,0 UV-I 45 W/m 3,7 C 4,0 C 3,0 km/h (1 Bft)
25.01.2016 15:00 22,8 C 4,1 C 44 % 98 % 1029,7 hPa 0,0 l/m 0,1 km/h (0 Bft) W-SW 0,00 h 0,0 UV-I 26 W/m 3,9 C 4,1 C 0,3 km/h (0 Bft)
25.01.2016 16:00 22,8 C 4,1 C 44 % 99 % 1029,7 hPa 0,0 l/m 0,0 km/h (0 Bft) S 0,00 h 0,0 UV-I 11 W/m 3,9 C 4,1 C 0,1 km/h (0 Bft)
25.01.2016 17:00 22,6 C 3,9 C 45 % 98 % 1029,6 hPa 0,0 l/m 0,0 km/h (0 Bft) S-SW 0,00 h 0,0 UV-I 0 W/m 3,7 C 3,9 C 0,1 km/h (0 Bft)
25.01.2016 18:00 22,7 C 3,8 C 45 % 98 % 1029,4 hPa 0,0 l/m 0,0 km/h (0 Bft) N 0,00 h 0,0 UV-I 0 W/m 3,6 C 3,8 C 0,1 km/h (0 Bft)
25.01.2016 19:00 22,7 C 4,1 C 45 % 99 % 1029,3 hPa 0,0 l/m 0,0 km/h (0 Bft) N 0,00 h 0,0 UV-I 0 W/m 3,9 C 4,1 C 0,0 km/h (0 Bft)
25.01.2016 20:00 22,7 C 4,2 C 45 % 99 % 1029,2 hPa 0,0 l/m 0,8 km/h (0 Bft) S-SO 0,00 h 0,0 UV-I 0 W/m 4,1 C 4,2 C 2,0 km/h (1 Bft)
25.01.2016 21:00 22,7 C 4,3 C 45 % 99 % 1029,2 hPa 0,0 l/m 2,5 km/h (1 Bft) S 0,00 h 0,0 UV-I 0 W/m 4,2 C 4,3 C 5,8 km/h (2 Bft)
25.01.2016 22:00 22,7 C 3,6 C 45 % 99 % 1029,4 hPa 0,0 l/m 1,1 km/h (1 Bft) S 0,00 h 0,0 UV-I 0 W/m 3,4 C 3,6 C 2,9 km/h (1 Bft)
25.01.2016 23:00 22,5 C 2,9 C 45 % 98 % 1029,1 hPa 0,0 l/m 1,9 km/h (1 Bft) S-SW 0,00 h 0,0 UV-I 0 W/m 2,6 C 2,8 C 5,1 km/h (1 Bft)
26.01.2016 00:00 22,3 C 2,2 C 46 % 99 % 1028,8 hPa 0,0 l/m 2,1 km/h (1 Bft) W-SW 0,00 h 0,0 UV-I 0 W/m 2,0 C 2,1 C 5,1 km/h (1 Bft)
26.01.2016 01:00 22,2 C 2,1 C 46 % 99 % 1028,8 hPa 0,0 l/m 0,2 km/h (0 Bft) S 0,00 h 0,0 UV-I 0 W/m 2,0 C 2,1 C 0,7 km/h (0 Bft)
26.01.2016 02:00 22,1 C 2,2 C 47 % 99 % 1028,6 hPa 0,0 l/m 1,2 km/h (1 Bft) S 0,00 h 0,0 UV-I 0 W/m 2,0 C 2,2 C 4,0 km/h (1 Bft)
26.01.2016 03:00 22,1 C 1,9 C 47 % 99 % 1028,7 hPa 0,0 l/m 1,3 km/h (1 Bft) S-SW 0,00 h 0,0 UV-I 0 W/m 1,7 C 1,9 C 3,6 km/h (1 Bft)
26.01.2016 04:00 22,1 C 1,7 C 48 % 99 % 1028,8 hPa 0,0 l/m 0,6 km/h (0 Bft) S 0,00 h 0,0 UV-I 0 W/m 1,5 C 1,7 C 1,5 km/h (1 Bft)
26.01.2016 05:00 22,1 C 1,6 C 47 % 99 % 1028,3 hPa 0,0 l/m 1,0 km/h (0 Bft) S 0,00 h 0,0 UV-I 0 W/m 1,5 C 1,6 C 2,7 km/h (1 Bft)
26.01.2016 06:00 22,2 C 1,4 C 47 % 99 % 1028,1 hPa 0,0 l/m 0,2 km/h (0 Bft) S-SO 0,00 h 0,0 UV-I 0 W/m 1,3 C 1,4 C 0,6 km/h (0 Bft)
26.01.2016 07:00 22,2 C 1,4 C 47 % 99 % 1028,7 hPa 0,0 l/m 0,0 km/h (0 Bft) S 0,00 h 0,0 UV-I 0 W/m 1,3 C 1,4 C 0,1 km/h (0 Bft)
26.01.2016 08:00 22,3 C 1,6 C 47 % 99 % 1029,2 hPa 0,0 l/m 0,0 km/h (0 Bft) S 0,00 h 0,0 UV-I 17 W/m 1,5 C 1,6 C 0,1 km/h (0 Bft)
26.01.2016 09:00 22,6 C 2,3 C 47 % 99 % 1029,4 hPa 0,0 l/m 1,3 km/h (1 Bft) S 0,00 h 0,0 UV-I 34 W/m 2,2 C 2,3 C 3,1 km/h (1 Bft)
26.01.2016 10:00 22,9 C 2,8 C 48 % 99 % 1029,2 hPa 0,0 l/m 0,8 km/h (0 Bft) W-SW 0,00 h 0,0 UV-I 68 W/m 2,6 C 2,8 C 1,9 km/h (1 Bft)
26.01.2016 11:00 22,8 C 3,2 C 47 % 99 % 1029,2 hPa 0,0 l/m 1,0 km/h (0 Bft) S 0,00 h 0,6 UV-I 103 W/m 3,0 C 3,2 C 1,9 km/h (1 Bft)
26.01.2016 12:00 22,8 C 4,5 C 48 % 96 % 1028,4 hPa 0,0 l/m 0,0 km/h (0 Bft) N 0,00 h 0,5 UV-I 86 W/m 3,9 C 4,5 C 0,1 km/h (0 Bft)
26.01.2016 13:00 22,9 C 5,0 C 48 % 94 % 1027,8 hPa 0,0 l/m 0,2 km/h (0 Bft) W-NW 0,00 h 0,5 UV-I 85 W/m 4,1 C 5,0 C 0,4 km/h (0 Bft)
26.01.2016 14:00 23,1 C 6,3 C 48 % 93 % 1027,0 hPa 0,0 l/m 0,9 km/h (0 Bft) W-SW 0,20 h 0,5 UV-I 107 W/m 5,2 C 6,3 C 1,8 km/h (1 Bft)
26.01.2016 15:00 23,5 C 6,7 C 46 % 88 % 1026,6 hPa 0,0 l/m 1,8 km/h (1 Bft) W-SW 0,13 h 0,5 UV-I 111 W/m 4,9 C 6,7 C 3,4 km/h (1 Bft)
26.01.2016 16:00 24,0 C 5,9 C 47 % 88 % 1026,4 hPa 0,0 l/m 0,9 km/h (0 Bft) S 0,00 h 0,0 UV-I 23 W/m 4,1 C 5,9 C 3,0 km/h (1 Bft)
26.01.2016 17:00 23,8 C 4,6 C 47 % 91 % 1026,0 hPa 0,0 l/m 0,2 km/h (0 Bft) S-SO 0,00 h 0,0 UV-I 0 W/m 3,2 C 4,6 C 1,1 km/h (0 Bft)
26.01.2016 18:00 23,8 C 4,0 C 47 % 94 % 1026,2 hPa 0,0 l/m 0,5 km/h (0 Bft) W-SW 0,00 h 0,0 UV-I 0 W/m 3,0 C 4,0 C 1,8 km/h (1 Bft)
26.01.2016 19:00 24,1 C 3,8 C 47 % 95 % 1025,7 hPa 0,0 l/m 1,5 km/h (1 Bft) W-SW 0,00 h 0,0 UV-I 0 W/m 3,0 C 3,8 C 3,8 km/h (1 Bft)
26.01.2016 20:00 23,8 C 4,1 C 47 % 94 % 1025,3 hPa 0,0 l/m 3,8 km/h (1 Bft) SW 0,00 h 0,0 UV-I 0 W/m 3,3 C 4,1 C 8,2 km/h (2 Bft)
26.01.2016 21:00 23,7 C 4,7 C 46 % 93 % 1024,8 hPa 0,0 l/m 5,9 km/h (2 Bft) SW 0,00 h 0,0 UV-I 0 W/m 3,7 C 4,3 C 11,4 km/h (2 Bft)
26.01.2016 22:00 23,6 C 5,3 C 46 % 91 % 1024,4 hPa 0,0 l/m 4,6 km/h (1 Bft) S-SW 0,00 h 0,0 UV-I 0 W/m 4,0 C 5,2 C 9,7 km/h (2 Bft)
26.01.2016 23:00 23,2 C 5,0 C 47 % 91 % 1024,1 hPa 0,0 l/m 3,6 km/h (1 Bft) W-SW 0,00 h 0,0 UV-I 0 W/m 3,7 C 4,9 C 7,7 km/h (2 Bft)
27.01.2016 00:00 23,1 C 4,2 C 47 % 92 % 1024,0 hPa 0,0 l/m 2,8 km/h (1 Bft) SW 0,00 h 0,0 UV-I 0 W/m 3,1 C 4,2 C 5,7 km/h (1 Bft)
27.01.2016 01:00 22,9 C 4,0 C 48 % 94 % 1023,4 hPa 0,0 l/m 2,8 km/h (1 Bft) SW 0,00 h 0,0 UV-I 0 W/m 3,1 C 3,9 C 6,9 km/h (2 Bft)
27.01.2016 02:00 22,8 C 4,9 C 48 % 94 % 1023,5 hPa 0,0 l/m 3,3 km/h (1 Bft) SW 0,00 h 0,0 UV-I 0 W/m 3,9 C 4,8 C 7,7 km/h (2 Bft)
27.01.2016 03:00 22,7 C 5,5 C 48 % 93 % 1023,2 hPa 0,0 l/m 3,2 km/h (1 Bft) S-SW 0,00 h 0,0 UV-I 0 W/m 4,4 C 5,4 C 8,1 km/h (2 Bft)
27.01.2016 04:00 22,7 C 5,6 C 48 % 92 % 1023,2 hPa 0,0 l/m 2,3 km/h (1 Bft) S 0,00 h 0,0 UV-I 0 W/m 4,4 C 5,5 C 5,1 km/h (1 Bft)
27.01.2016 05:00 22,5 C 5,0 C 48 % 93 % 1022,9 hPa 0,0 l/m 1,8 km/h (1 Bft) S 0,00 h 0,0 UV-I 0 W/m 3,9 C 5,0 C 4,1 km/h (1 Bft)
27.01.2016 06:00 22,5 C 5,0 C 48 % 93 % 1022,9 hPa 0,0 l/m 3,7 km/h (1 Bft) S 0,00 h 0,0 UV-I 0 W/m 4,0 C 4,8 C 6,9 km/h (2 Bft)
27.01.2016 07:00 22,5 C 5,7 C 48 % 92 % 1022,8 hPa 0,0 l/m 4,6 km/h (1 Bft) S-SW 0,00 h 0,0 UV-I 0 W/m 4,4 C 5,6 C 9,5 km/h (2 Bft)
27.01.2016 08:00 22,6 C 6,6 C 49 % 89 % 1022,8 hPa 0,0 l/m 2,8 km/h (1 Bft) SW 0,00 h 0,0 UV-I 26 W/m 4,8 C 6,4 C 6,5 km/h (2 Bft)
27.01.2016 09:00 22,9 C 7,1 C 49 % 87 % 1023,2 hPa 0,0 l/m 3,7 km/h (1 Bft) S 0,02 h 0,5 UV-I 95 W/m 5,0 C 6,9 C 7,7 km/h (2 Bft)
27.01.2016 10:00 22,9 C 7,7 C 47 % 85 % 1023,2 hPa 0,0 l/m 5,2 km/h (1 Bft) S-SW 0,03 h 0,6 UV-I 123 W/m 5,4 C 7,5 C 10,2 km/h (2 Bft)
27.01.2016 11:00 23,1 C 8,3 C 46 % 85 % 1023,1 hPa 0,0 l/m 4,6 km/h (1 Bft) S 0,65 h 0,9 UV-I 197 W/m 5,9 C 8,0 C 9,8 km/h (2 Bft)
27.01.2016 12:00 22,9 C 9,4 C 45 % 81 % 1022,1 hPa 0,0 l/m 7,9 km/h (2 Bft) S 1,00 h 1,1 UV-I 283 W/m 6,4 C 8,1 C 14,7 km/h (3 Bft)
27.01.2016 13:00 22,9 C 10,2 C 45 % 78 % 1021,4 hPa 0,0 l/m 5,9 km/h (2 Bft) S 0,87 h 0,9 UV-I 201 W/m 6,6 C 9,6 C 12,3 km/h (3 Bft)
27.01.2016 14:00 22,9 C 10,8 C 44 % 75 % 1020,9 hPa 0,0 l/m 4,5 km/h (1 Bft) SW 0,38 h 0,5 UV-I 145 W/m 6,6 C 10,5 C 11,1 km/h (2 Bft)
27.01.2016 15:00 23,0 C 10,3 C 45 % 78 % 1020,6 hPa 0,0 l/m 6,1 km/h (2 Bft) S 0,00 h 0,0 UV-I 58 W/m 6,7 C 9,8 C 11,4 km/h (2 Bft)
27.01.2016 16:00 23,5 C 9,5 C 48 % 80 % 1020,4 hPa 0,0 l/m 3,3 km/h (1 Bft) S-SO 0,00 h 0,0 UV-I 11 W/m 6,2 C 9,4 C 6,8 km/h (2 Bft)
27.01.2016 17:00 23,4 C 8,6 C 45 % 83 % 1020,2 hPa 0,0 l/m 3,0 km/h (1 Bft) S 0,00 h 0,0 UV-I 0 W/m 5,8 C 8,5 C 6,1 km/h (2 Bft)
27.01.2016 18:00 23,3 C 8,2 C 46 % 84 % 1020,0 hPa 0,0 l/m 0,4 km/h (0 Bft) SO 0,00 h 0,0 UV-I 0 W/m 5,7 C 8,2 C 0,9 km/h (0 Bft)
27.01.2016 19:00 23,3 C 8,1 C 47 % 83 % 1019,8 hPa 0,0 l/m 0,3 km/h (0 Bft) SO 0,00 h 0,0 UV-I 0 W/m 5,5 C 8,1 C 1,3 km/h (1 Bft)
27.01.2016 20:00 23,1 C 7,9 C 47 % 83 % 1019,2 hPa 0,0 l/m 4,2 km/h (1 Bft) S 0,00 h 0,0 UV-I 0 W/m 5,3 C 7,5 C 8,3 km/h (2 Bft)
27.01.2016 21:00 23,3 C 7,9 C 47 % 83 % 1018,8 hPa 0,0 l/m 4,5 km/h (1 Bft) SW 0,00 h 0,0 UV-I 0 W/m 5,2 C 7,8 C 10,3 km/h (2 Bft)
27.01.2016 22:00 23,4 C 8,4 C 47 % 82 % 1018,5 hPa 0,0 l/m 8,5 km/h (2 Bft) S 0,00 h 0,0 UV-I 0 W/m 5,4 C 6,5 C 15,4 km/h (3 Bft)
27.01.2016 23:00 23,0 C 8,5 C 47 % 81 % 1018,5 hPa 0,0 l/m 8,6 km/h (2 Bft) S-SW 0,00 h 0,0 UV-I 0 W/m 5,5 C 6,7 C 14,0 km/h (3 Bft)
28.01.2016 00:00 22,8 C 8,6 C 47 % 81 % 1018,5 hPa 0,0 l/m 9,4 km/h (2 Bft) S 0,00 h 0,0 UV-I 0 W/m 5,6 C 6,5 C 14,8 km/h (3 Bft)
28.01.2016 01:00 22,7 C 8,9 C 47 % 80 % 1018,2 hPa 0,0 l/m 3,8 km/h (1 Bft) S 0,00 h 0,0 UV-I 0 W/m 5,6 C 8,7 C 7,6 km/h (2 Bft)
28.01.2016 02:00 22,7 C 8,5 C 48 % 82 % 1017,7 hPa 0,0 l/m 5,1 km/h (1 Bft) SW 0,00 h 0,0 UV-I 0 W/m 5,6 C 7,7 C 10,0 km/h (2 Bft)
28.01.2016 03:00 22,6 C 8,9 C 48 % 82 % 1017,6 hPa 0,0 l/m 6,4 km/h (2 Bft) SW 0,00 h 0,0 UV-I 0 W/m 6,0 C 8,0 C 11,0 km/h (2 Bft)
28.01.2016 04:00 22,6 C 8,7 C 49 % 85 % 1017,1 hPa 0,0 l/m 3,9 km/h (1 Bft) S 0,00 h 0,0 UV-I 0 W/m 6,3 C 8,2 C 6,8 km/h (2 Bft)
28.01.2016 05:00 22,4 C 8,3 C 48 % 84 % 1016,9 hPa 0,0 l/m 5,3 km/h (1 Bft) S 0,00 h 0,0 UV-I 0 W/m 5,8 C 7,5 C 9,4 km/h (2 Bft)
28.01.2016 06:00 22,4 C 8,2 C 48 % 84 % 1017,4 hPa 0,0 l/m 4,4 km/h (1 Bft) S-SW 0,00 h 0,0 UV-I 0 W/m 5,7 C 7,5 C 8,2 km/h (2 Bft)
28.01.2016 07:00 22,4 C 8,8 C 48 % 82 % 1018,2 hPa 0,0 l/m 9,3 km/h (2 Bft) W-SW 0,00 h 0,0 UV-I 0 W/m 5,9 C 6,6 C 15,7 km/h (3 Bft)
28.01.2016 08:00 22,5 C 9,7 C 49 % 79 % 1019,0 hPa 0,0 l/m 12,7 km/h (3 Bft) W-SW 0,00 h 0,0 UV-I 11 W/m 6,3 C 6,0 C 21,2 km/h (4 Bft)
28.01.2016 09:00 22,9 C 9,4 C 50 % 81 % 1020,1 hPa 0,0 l/m 12,8 km/h (3 Bft) W-SW 0,00 h 0,0 UV-I 28 W/m 6,2 C 5,6 C 20,2 km/h (4 Bft)
28.01.2016 10:00 22,9 C 9,4 C 49 % 81 % 1021,1 hPa 0,0 l/m 12,0 km/h (2 Bft) W 0,13 h 0,7 UV-I 84 W/m 6,4 C 6,0 C 19,1 km/h (3 Bft)
28.01.2016 11:00 22,9 C 8,5 C 49 % 86 % 1022,3 hPa 0,4 l/m 11,3 km/h (2 Bft) W 0,03 h 0,6 UV-I 55 W/m 6,3 C 5,3 C 16,8 km/h (3 Bft)
28.01.2016 12:00 22,9 C 6,4 C 49 % 92 % 1023,3 hPa 0,0 l/m 2,3 km/h (1 Bft) NW 0,00 h 0,6 UV-I 60 W/m 5,2 C 6,4 C 4,2 km/h (1 Bft)
28.01.2016 13:00 23,0 C 6,6 C 49 % 92 % 1023,6 hPa 0,0 l/m 0,8 km/h (0 Bft) W-NW 0,00 h 0,6 UV-I 83 W/m 5,5 C 6,6 C 1,7 km/h (1 Bft)
28.01.2016 14:00 22,9 C 7,1 C 48 % 87 % 1024,0 hPa 0,0 l/m 3,5 km/h (1 Bft) W-NW 0,00 h 0,4 UV-I 61 W/m 5,0 C 6,8 C 5,8 km/h (2 Bft)
28.01.2016 15:00 23,2 C 6,9 C 48 % 86 % 1024,5 hPa 0,0 l/m 1,0 km/h (0 Bft) W-NW 0,00 h 0,0 UV-I 45 W/m 4,7 C 6,8 C 1,9 km/h (1 Bft)
28.01.2016 16:00 23,0 C 6,4 C 47 % 85 % 1025,2 hPa 0,0 l/m 0,0 km/h (0 Bft) N 0,00 h 0,0 UV-I 16 W/m 4,0 C 6,4 C 0,0 km/h (0 Bft)
28.01.2016 17:00 22,8 C 5,1 C 47 % 86 % 1025,7 hPa 0,0 l/m 0,0 km/h (0 Bft) N 0,00 h 0,0 UV-I 0 W/m 3,0 C 5,1 C 0,0 km/h (0 Bft)
28.01.2016 18:00 23,4 C 3,9 C 48 % 90 % 1026,3 hPa 0,0 l/m 0,0 km/h (0 Bft) N 0,00 h 0,0 UV-I 0 W/m 2,3 C 3,9 C 0,0 km/h (0 Bft)
28.01.2016 19:00 23,5 C 3,2 C 49 % 91 % 1026,7 hPa 0,0 l/m 0,0 km/h (0 Bft) N 0,00 h 0,0 UV-I 0 W/m 1,9 C 3,2 C 0,0 km/h (0 Bft)
28.01.2016 20:00 23,3 C 2,2 C 49 % 92 % 1026,8 hPa 0,0 l/m 0,0 km/h (0 Bft) N 0,00 h 0,0 UV-I 0 W/m 1,0 C 2,2 C 0,0 km/h (0 Bft)
28.01.2016 21:00 23,3 C 1,4 C 50 % 93 % 1026,8 hPa 0,0 l/m 0,0 km/h (0 Bft) N 0,00 h 0,0 UV-I 0 W/m 0,4 C 1,4 C 0,0 km/h (0 Bft)
28.01.2016 22:00 23,3 C 0,5 C 49 % 93 % 1026,9 hPa 0,0 l/m 0,0 km/h (0 Bft) N 0,00 h 0,0 UV-I 0 W/m -0,5 C 0,5 C 0,0 km/h (0 Bft)
28.01.2016 23:00 23,2 C -0,0 C 50 % 94 % 1027,0 hPa 0,0 l/m 0,0 km/h (0 Bft) N 0,00 h 0,0 UV-I 0 W/m -0,9 C -0,0 C 0,0 km/h (0 Bft)
29.01.2016 00:00 22,9 C -0,2 C 50 % 94 % 1027,1 hPa 0,0 l/m 0,0 km/h (0 Bft) N 0,00 h 0,0 UV-I 0 W/m -1,1 C -0,2 C 0,0 km/h (0 Bft)
29.01.2016 01:00 22,7 C -0,2 C 50 % 95 % 1027,0 hPa 0,0 l/m 0,0 km/h (0 Bft) N 0,00 h 0,0 UV-I 0 W/m -0,9 C -0,2 C 0,0 km/h (0 Bft)
29.01.2016 02:00 22,7 C 0,1 C 50 % 95 % 1027,0 hPa 0,0 l/m 0,0 km/h (0 Bft) N 0,00 h 0,0 UV-I 0 W/m -0,6 C 0,1 C 0,0 km/h (0 Bft)
29.01.2016 03:00 22,6 C 0,4 C 51 % 96 % 1026,8 hPa 0,0 l/m 0,0 km/h (0 Bft) N 0,00 h 0,0 UV-I 0 W/m -0,2 C 0,4 C 0,0 km/h (0 Bft)
29.01.2016 04:00 22,5 C 1,0 C 51 % 96 % 1026,9 hPa 0,0 l/m 0,0 km/h (0 Bft) N 0,00 h 0,0 UV-I 0 W/m 0,5 C 1,0 C 0,0 km/h (0 Bft)
29.01.2016 05:00 22,4 C 2,4 C 50 % 97 % 1027,4 hPa 0,0 l/m 0,2 km/h (0 Bft) S 0,00 h 0,0 UV-I 0 W/m 2,0 C 2,4 C 0,9 km/h (0 Bft)
29.01.2016 06:00 22,5 C 2,8 C 50 % 97 % 1027,9 hPa 0,0 l/m 0,4 km/h (0 Bft) SW 0,00 h 0,0 UV-I 0 W/m 2,3 C 2,8 C 2,1 km/h (1 Bft)
29.01.2016 07:00 22,5 C 2,6 C 51 % 96 % 1028,2 hPa 0,0 l/m 1,3 km/h (1 Bft) S-SW 0,00 h 0,0 UV-I 8 W/m 2,1 C 2,6 C 4,2 km/h (1 Bft)
29.01.2016 08:00 22,5 C 2,8 C 51 % 95 % 1028,6 hPa 0,2 l/m 2,7 km/h (1 Bft) SW 0,00 h 0,0 UV-I 40 W/m 2,0 C 2,6 C 6,3 km/h (2 Bft)
29.01.2016 09:00 22,9 C 4,3 C 52 % 87 % 1028,7 hPa 0,0 l/m 5,0 km/h (1 Bft) SW 0,57 h 0,6 UV-I 179 W/m 2,4 C 4,0 C 11,2 km/h (2 Bft)
29.01.2016 10:00 23,2 C 4,8 C 52 % 84 % 1029,0 hPa 0,0 l/m 12,5 km/h (3 Bft) W-SW 1,00 h 0,9 UV-I 295 W/m 2,3 C 0,4 C 21,1 km/h (4 Bft)
29.01.2016 11:00 22,9 C 5,6 C 48 % 75 % 1028,8 hPa 0,0 l/m 12,0 km/h (2 Bft) W-SW 1,00 h 1,2 UV-I 332 W/m 1,6 C 1,6 C 19,6 km/h (3 Bft)
29.01.2016 12:00 23,3 C 6,6 C 49 % 68 % 1028,5 hPa 0,0 l/m 10,5 km/h (2 Bft) SW 1,00 h 1,3 UV-I 350 W/m 1,1 C 3,5 C 18,3 km/h (3 Bft)
29.01.2016 13:00 23,1 C 7,3 C 45 % 63 % 1028,1 hPa 0,0 l/m 10,8 km/h (2 Bft) S-SW 1,00 h 1,2 UV-I 323 W/m 0,8 C 4,2 C 17,4 km/h (3 Bft)
29.01.2016 14:00 22,6 C 7,8 C 41 % 62 % 1027,7 hPa 0,0 l/m 10,1 km/h (2 Bft) S-SW 1,00 h 0,8 UV-I 252 W/m 0,9 C 5,0 C 17,6 km/h (3 Bft)
29.01.2016 15:00 22,7 C 7,6 C 42 % 65 % 1027,9 hPa 0,0 l/m 9,5 km/h (2 Bft) S-SW 0,38 h 0,5 UV-I 136 W/m 1,5 C 5,2 C 15,2 km/h (3 Bft)
29.01.2016 16:00 22,6 C 6,8 C 42 % 70 % 1027,8 hPa 0,0 l/m 5,9 km/h (2 Bft) S 0,00 h 0,0 UV-I 29 W/m 1,8 C 6,1 C 10,4 km/h (2 Bft)
29.01.2016 17:00 22,5 C 5,7 C 42 % 73 % 1027,8 hPa 0,0 l/m 6,7 km/h (2 Bft) S-SW 0,00 h 0,0 UV-I 0 W/m 1,4 C 4,9 C 11,4 km/h (2 Bft)
29.01.2016 18:00 23,1 C 5,3 C 44 % 75 % 1027,8 hPa 0,0 l/m 6,6 km/h (2 Bft) S-SW 0,00 h 0,0 UV-I 0 W/m 1,3 C 4,3 C 11,2 km/h (2 Bft)
29.01.2016 19:00 23,0 C 4,9 C 44 % 78 % 1027,7 hPa 0,0 l/m 8,4 km/h (2 Bft) S-SW 0,00 h 0,0 UV-I 0 W/m 1,3 C 3,0 C 14,6 km/h (3 Bft)
29.01.2016 20:00 23,0 C 5,1 C 44 % 78 % 1027,8 hPa 0,0 l/m 9,1 km/h (2 Bft) S 0,00 h 0,0 UV-I 0 W/m 1,5 C 2,9 C 14,2 km/h (3 Bft)
29.01.2016 21:00 22,9 C 5,1 C 45 % 78 % 1027,8 hPa 0,0 l/m 9,5 km/h (2 Bft) S 0,00 h 0,0 UV-I 0 W/m 1,6 C 2,6 C 14,3 km/h (3 Bft)
29.01.2016 22:00 22,9 C 4,8 C 46 % 80 % 1027,5 hPa 0,0 l/m 3,6 km/h (1 Bft) S 0,00 h 0,0 UV-I 0 W/m 1,7 C 4,6 C 6,9 km/h (2 Bft)
29.01.2016 23:00 22,8 C 4,4 C 46 % 82 % 1027,2 hPa 0,0 l/m 3,9 km/h (1 Bft) S 0,00 h 0,0 UV-I 0 W/m 1,5 C 4,0 C 7,4 km/h (2 Bft)
30.01.2016 00:00 22,7 C 4,3 C 47 % 83 % 1026,4 hPa 0,0 l/m 6,2 km/h (2 Bft) SW 0,00 h 0,0 UV-I 0 W/m 1,7 C 3,6 C 10,3 km/h (2 Bft)
30.01.2016 01:00 22,6 C 4,4 C 47 % 84 % 1025,7 hPa 0,0 l/m 3,2 km/h (1 Bft) SW 0,00 h 0,0 UV-I 0 W/m 2,0 C 4,0 C 6,6 km/h (2 Bft)
30.01.2016 02:00 22,5 C 4,4 C 47 % 85 % 1025,2 hPa 0,0 l/m 5,8 km/h (2 Bft) SW 0,00 h 0,0 UV-I 0 W/m 2,2 C 3,7 C 11,1 km/h (2 Bft)
30.01.2016 03:00 22,4 C 4,3 C 47 % 86 % 1024,5 hPa 0,0 l/m 9,5 km/h (2 Bft) S-SW 0,00 h 0,0 UV-I 0 W/m 2,3 C 1,6 C 16,4 km/h (3 Bft)
30.01.2016 04:00 22,4 C 4,4 C 47 % 87 % 1023,7 hPa 0,0 l/m 12,0 km/h (2 Bft) SW 0,00 h 0,0 UV-I 0 W/m 2,4 C 0,2 C 20,4 km/h (4 Bft)
30.01.2016 05:00 22,4 C 4,5 C 47 % 85 % 1022,7 hPa 0,0 l/m 13,6 km/h (3 Bft) S-SW 0,00 h 0,0 UV-I 0 W/m 2,3 C -0,5 C 22,0 km/h (4 Bft)
30.01.2016 06:00 22,4 C 4,1 C 48 % 84 % 1022,0 hPa 0,0 l/m 13,1 km/h (3 Bft) S 0,00 h 0,0 UV-I 0 W/m 1,7 C -0,8 C 20,3 km/h (4 Bft)
30.01.2016 07:00 22,5 C 3,8 C 48 % 83 % 1021,6 hPa 0,0 l/m 14,2 km/h (3 Bft) S 0,00 h 0,0 UV-I 0 W/m 1,1 C -1,8 C 21,3 km/h (4 Bft)
30.01.2016 08:00 23,2 C 3,5 C 48 % 84 % 1021,4 hPa 0,0 l/m 14,5 km/h (3 Bft) S 0,00 h 0,0 UV-I 14 W/m 1,1 C -2,3 C 21,0 km/h (4 Bft)
30.01.2016 09:00 23,3 C 3,4 C 47 % 85 % 1021,0 hPa 0,0 l/m 12,8 km/h (3 Bft) S 0,13 h 0,6 UV-I 85 W/m 1,1 C -1,5 C 19,9 km/h (4 Bft)
30.01.2016 10:00 23,3 C 4,8 C 46 % 81 % 1020,3 hPa 0,0 l/m 12,9 km/h (3 Bft) S 0,92 h 0,9 UV-I 284 W/m 1,7 C 0,1 C 19,7 km/h (3 Bft)
30.01.2016 11:00 23,3 C 5,9 C 44 % 75 % 1019,0 hPa 0,0 l/m 11,8 km/h (2 Bft) S 0,93 h 1,2 UV-I 287 W/m 1,9 C 2,1 C 18,6 km/h (3 Bft)
30.01.2016 12:00 23,3 C 6,4 C 41 % 73 % 1017,2 hPa 0,0 l/m 13,0 km/h (3 Bft) S 0,97 h 1,2 UV-I 295 W/m 1,9 C 1,9 C 19,1 km/h (3 Bft)
30.01.2016 13:00 23,2 C 6,0 C 42 % 76 % 1015,6 hPa 0,0 l/m 9,4 km/h (2 Bft) S 0,00 h 0,6 UV-I 93 W/m 2,1 C 3,7 C 14,8 km/h (3 Bft)
30.01.2016 14:00 23,3 C 6,5 C 42 % 72 % 1013,8 hPa 0,0 l/m 10,8 km/h (2 Bft) SW 0,00 h 0,6 UV-I 79 W/m 1,9 C 3,4 C 18,9 km/h (3 Bft)
30.01.2016 15:00 23,6 C 6,8 C 43 % 70 % 1012,6 hPa 0,0 l/m 16,8 km/h (3 Bft) S-SW 0,00 h 0,0 UV-I 38 W/m 1,7 C 0,7 C 24,2 km/h (4 Bft)
30.01.2016 16:00 23,8 C 6,9 C 43 % 70 % 1011,1 hPa 0,0 l/m 17,1 km/h (3 Bft) S 0,00 h 0,0 UV-I 20 W/m 1,8 C 0,5 C 25,7 km/h (4 Bft)
30.01.2016 17:00 23,7 C 6,9 C 43 % 71 % 1010,2 hPa 0,0 l/m 13,9 km/h (3 Bft) S 0,00 h 0,0 UV-I 0 W/m 2,0 C 2,1 C 22,3 km/h (4 Bft)
30.01.2016 18:00 23,9 C 6,4 C 43 % 79 % 1009,8 hPa 1,0 l/m 14,3 km/h (3 Bft) S-SW 0,00 h 0,0 UV-I 0 W/m 3,1 C 1,3 C 23,1 km/h (4 Bft)
30.01.2016 19:00 23,8 C 5,4 C 44 % 89 % 1009,6 hPa 1,6 l/m 10,4 km/h (2 Bft) S-SW 0,00 h 0,0 UV-I 0 W/m 3,8 C 2,4 C 17,0 km/h (3 Bft)
30.01.2016 20:00 23,5 C 5,1 C 45 % 93 % 1009,3 hPa 2,2 l/m 11,8 km/h (2 Bft) SW 0,00 h 0,0 UV-I 0 W/m 4,0 C 1,2 C 18,8 km/h (3 Bft)
30.01.2016 21:00 23,7 C 4,9 C 47 % 94 % 1008,5 hPa 0,8 l/m 12,7 km/h (3 Bft) SW 0,00 h 0,0 UV-I 0 W/m 4,0 C 0,5 C 21,3 km/h (4 Bft)
30.01.2016 22:00 23,6 C 4,7 C 46 % 93 % 1008,5 hPa 1,0 l/m 15,6 km/h (3 Bft) W-SW 0,00 h 0,0 UV-I 0 W/m 3,6 C -1,5 C 24,7 km/h (4 Bft)
30.01.2016 23:00 23,2 C 3,8 C 45 % 91 % 1009,1 hPa 0,0 l/m 13,2 km/h (3 Bft) W 0,00 h 0,0 UV-I 0 W/m 2,5 C -1,2 C 21,6 km/h (4 Bft)
31.01.2016 00:00 23,0 C 3,3 C 46 % 90 % 1009,5 hPa 0,0 l/m 14,8 km/h (3 Bft) W-SW 0,00 h 0,0 UV-I 0 W/m 1,9 C -2,5 C 24,5 km/h (4 Bft)
31.01.2016 01:00 22,9 C 2,6 C 46 % 89 % 1010,3 hPa 0,4 l/m 15,2 km/h (3 Bft) W 0,00 h 0,0 UV-I 0 W/m 1,1 C -3,6 C 25,4 km/h (4 Bft)
31.01.2016 02:00 22,8 C 1,3 C 46 % 92 % 1011,4 hPa 0,0 l/m 11,7 km/h (2 Bft) W-NW 0,00 h 0,0 UV-I 0 W/m 0,1 C -3,0 C 18,7 km/h (3 Bft)
31.01.2016 03:00 22,8 C 1,1 C 47 % 90 % 1012,3 hPa 0,0 l/m 6,7 km/h (2 Bft) W-SW 0,00 h 0,0 UV-I 0 W/m -0,5 C -0,3 C 10,4 km/h (2 Bft)
31.01.2016 04:00 22,8 C 0,7 C 47 % 89 % 1012,2 hPa 0,0 l/m 6,4 km/h (2 Bft) W-SW 0,00 h 0,0 UV-I 0 W/m -0,9 C -0,2 C 11,1 km/h (2 Bft)
31.01.2016 05:00 22,9 C 0,5 C 48 % 90 % 1012,9 hPa 0,0 l/m 7,6 km/h (2 Bft) W-SW 0,00 h 0,0 UV-I 0 W/m -1,0 C -1,5 C 13,5 km/h (3 Bft)
31.01.2016 06:00 22,9 C 0,5 C 48 % 91 % 1013,2 hPa 0,0 l/m 9,9 km/h (2 Bft) SW 0,00 h 0,0 UV-I 0 W/m -0,8 C -2,7 C 16,2 km/h (3 Bft)
31.01.2016 07:00 23,2 C 0,7 C 47 % 92 % 1013,1 hPa 0,0 l/m 8,6 km/h (2 Bft) SW 0,00 h 0,0 UV-I 0 W/m -0,5 C -1,5 C 14,4 km/h (3 Bft)
31.01.2016 08:00 23,4 C 0,9 C 45 % 92 % 1013,4 hPa 0,0 l/m 9,7 km/h (2 Bft) W-SW 0,00 h 0,0 UV-I 15 W/m -0,2 C -2,2 C 15,1 km/h (3 Bft)
31.01.2016 09:00 23,5 C 1,7 C 46 % 90 % 1013,9 hPa 0,0 l/m 10,3 km/h (2 Bft) W-SW 0,00 h 0,5 UV-I 83 W/m 0,2 C -1,7 C 17,0 km/h (3 Bft)
31.01.2016 10:00 23,6 C 2,1 C 45 % 90 % 1013,7 hPa 0,0 l/m 7,0 km/h (2 Bft) SW 0,00 h 0,5 UV-I 70 W/m 0,7 C 0,9 C 11,4 km/h (2 Bft)
31.01.2016 11:00 23,5 C 2,5 C 44 % 90 % 1013,2 hPa 0,0 l/m 7,8 km/h (2 Bft) SW 0,00 h 0,6 UV-I 92 W/m 1,1 C 0,8 C 13,2 km/h (3 Bft)
31.01.2016 12:00 23,6 C 3,1 C 46 % 88 % 1013,1 hPa 0,0 l/m 12,9 km/h (3 Bft) W-SW 0,00 h 0,6 UV-I 85 W/m 1,3 C -1,9 C 20,2 km/h (4 Bft)
31.01.2016 13:00 23,4 C 3,2 C 44 % 86 % 1012,8 hPa 0,0 l/m 10,3 km/h (2 Bft) W-SW 0,00 h 0,5 UV-I 81 W/m 1,1 C 0,0 C 16,8 km/h (3 Bft)
31.01.2016 14:00 23,7 C 2,8 C 45 % 87 % 1012,9 hPa 0,2 l/m 10,4 km/h (2 Bft) W-SW 0,08 h 0,5 UV-I 81 W/m 0,9 C -0,6 C 16,7 km/h (3 Bft)
31.01.2016 15:00 23,8 C 3,3 C 44 % 86 % 1012,4 hPa 0,0 l/m 7,3 km/h (2 Bft) W-SW 0,28 h 0,5 UV-I 107 W/m 1,2 C 1,6 C 12,3 km/h (3 Bft)
31.01.2016 16:00 23,9 C 2,8 C 43 % 89 % 1012,4 hPa 0,0 l/m 6,6 km/h (2 Bft) SW 0,00 h 0,0 UV-I 29 W/m 1,2 C 1,8 C 11,2 km/h (2 Bft)
31.01.2016 17:00 23,9 C 2,6 C 42 % 91 % 1012,4 hPa 0,0 l/m 5,2 km/h (1 Bft) S-SW 0,00 h 0,0 UV-I 0 W/m 1,3 C 2,4 C 9,1 km/h (2 Bft)
31.01.2016 18:00 24,0 C 2,5 C 42 % 92 % 1012,7 hPa 0,0 l/m 6,1 km/h (2 Bft) S 0,00 h 0,0 UV-I 0 W/m 1,3 C 1,9 C 10,4 km/h (2 Bft)
31.01.2016 19:00 24,2 C 2,5 C 42 % 93 % 1012,4 hPa 0,0 l/m 8,4 km/h (2 Bft) S 0,00 h 0,0 UV-I 0 W/m 1,5 C 0,4 C 13,0 km/h (3 Bft)
31.01.2016 20:00 23,9 C 2,4 C 43 % 94 % 1012,0 hPa 0,0 l/m 5,7 km/h (1 Bft) S 0,00 h 0,0 UV-I 0 W/m 1,6 C 1,8 C 9,4 km/h (2 Bft)
31.01.2016 21:00 23,8 C 2,4 C 44 % 95 % 1011,6 hPa 0,0 l/m 4,8 km/h (1 Bft) S 0,00 h 0,0 UV-I 0 W/m 1,7 C 2,0 C 8,8 km/h (2 Bft)
31.01.2016 22:00 23,7 C 2,6 C 44 % 96 % 1010,9 hPa 0,2 l/m 3,9 km/h (1 Bft) S 0,00 h 0,0 UV-I 0 W/m 2,0 C 2,3 C 6,2 km/h (2 Bft)
31.01.2016 23:00 23,3 C 2,8 C 45 % 96 % 1010,5 hPa 0,4 l/m 4,3 km/h (1 Bft) S 0,00 h 0,0 UV-I 0 W/m 2,2 C 2,6 C 8,4 km/h (2 Bft)
Min-Datum _ 25.01.16 29.01.16 29.01.16 29.01.16 30.01.16 - 25.01.16 - - - - 29.01.16 31.01.16 25.01.16
_ Min-Zeit 10:50 00:34 14:01 14:11 21:58 - 00:00 - - - - 00:34 02:11 00:10
Minimum _ 21,8 C -0,3 C 37 % 60 % 1008,1 hPa - 0,0 km/h (0 Bft) - - - - -1,1 C -8,7 C 0,0 km/h (0 Bft)
Max-Datum _ 31.01.16 27.01.16 29.01.16 25.01.16 25.01.16 30.01.16 31.01.16 - 29.01.16 30.01.16 30.01.16 27.01.16 27.01.16 31.01.16
_ Max-Zeit 19:13 14:54 10:06 12:45 00:14 20:04 01:03 - 13:37 12:23 10:58 15:14 14:56 01:03
Maximum _ 24,3 C 11,3 C 54 % 99 % 1031,6 hPa 2,2 l/m 29,0 km/h
W (5 Bft)
- 0,03 h 1,4 UV-I 427 W/m 7,1 C 11,3 C 51,5 km/h
W (7 Bft)
Durchschnitt _ 23,0 C 4,5 C 47 % 89 % 1022,6 hPa #9,6 l/m 5,2 km/h (1 Bft) S #12:43 h 0,7 UV-I 99 W/m 2,8 C 3,3 C 9,1 km/h (2 Bft)